STARLINK-32961, 63122

Orbit data source: Space-Track

STARLINK-32961, 63122 is a payload satellite owned by SpaceX/Seattle (US) in LEO that was launched on Thu, 27 Feb 2025 UTC via an FALCON 9 launch vehicle from the Air Force Eastern Test Range (AFETR). Payload-class satellites include a variety of spacecraft equipped with specific instruments for various scientific and technological missions. These include communications satellites like Starlink; space stations such as the ISS; scientific satellites like the Hubble; Earth observation satellites from companies like Planet Labs, Umbra, and HawkEye 360; GPS; miniature CubeSats for education and research; and military/defense satellites.

Loading next visibility...
Identifier
63122, 2025-039U
Orbit
LEO
Last TLE update
7 hours ago
Origin
Manufacturer
SpaceX/Seattle
Mission
Operational Commercial Communications
Bus & Motor
STARLINK V2M, Unknown motor
Mass
730 kg wet, ~700 kg dry
Launch date (UTC)
2025-02-27 (4 months ago)
Launch vehicle
FALCON 9
Launch site
Air Force Eastern Test Range (AFETR)
Object type
Payload
Rocket body
Debris
Shape & HBR
Box + 2 Pan, 29 m
Radar Cross Section
33.884 m², Large (>1 m²)

Expand to show TLE details & history

TLE from 7 hours ago
0 STARLINK-32961
1 63122U 25039U   25183.83316537  .00016984  00000-0  62543-3 0  9999
2 63122  43.0033 343.9110 0001182 257.8153 102.2566 15.27573423 20567
Epoch: 2025-07-02T19:59Z
TLE epoch observation values (Epoch: 2025-07-02T19:59:45.487Z)
Latitude
-0.00006°
Longitude
122.86281°
Altitude
483.017 km
Speed
7.626 km/s
True Right ascension
22h 55m 38s
True Declination
0° 00' 00"
Sunlit
Object was in full shadow at epoch
Visualization orbit readout
Latitude
-42.58047°
Longitude
42.61496°
Altitude
495.379 km
Speed
7.618 km/s
Apparent Right ascension
22h 12m 11s
Apparent Declination
-70° 55' 57"
Sunlit
Object is in full shadow
Visualization observer readout
Local Sidereal Time
15:14:23
Azimuth
154.811° SSE
Elevation
-41.988°
Doppler factor
1
Orbital elements
Apogee altitude
485.825 km
Perigee altitude
484.202 km
Semi-major axis
6,863.15 km
Eccentricity
0.00012
Inclination
43.0033°
RAAN
343.911°
Arg. of periapsis
257.8153°
True anomaly
Unknown
Mean anomaly
102.2566°
Eccentric anomaly
Unknown
Mean motion
3.81731 °/min
Orbital period
94.31 mins
BSTAR
0.00062543
Loading maneuver chart data...
Loading SW <> Apogee altitude chart data...
Loading historical data...
Loading historical data...
Loading historical data...
Loading historical data...
Loading historical data...
Loading historical data...
Loading historical data...

STARLINK-32961 Visibility forecast

Observer location: undefined°, undefined°

Span
Click to sort rows by Start time (UTC) header in descending order
Start Az.
Max El. time (UTC)
Max El. Az.
Max El.
End time (UTC)
End Az.
5 mins2025-07-03 13:27:12.054Z191.922° SSW2025-07-03 13:29:12.054Z151.808° SSE21.948°2025-07-03 13:32:12.054Z93.873° ESE
5 mins2025-07-03 15:06:12.054Z253.369° W2025-07-03 15:08:12.054Z46.532° ENE44.797°2025-07-03 15:11:12.054Z71.454° E
5 mins2025-07-03 16:45:12.054Z292.448° WNW2025-07-03 16:47:12.054Z357.926° N37.979°2025-07-03 16:50:12.054Z74.162° E
5 mins2025-07-03 18:24:12.054Z289.829° WNW2025-07-03 18:26:12.054Z316.682° NNW44.5°2025-07-03 18:29:12.054Z105.97° ESE
4 mins2025-07-03 20:03:12.054Z255.37° W2025-07-03 20:05:12.054Z209.737° SW22.83°2025-07-03 20:07:12.054Z167.631° S
|